Regional Weather Roundup
Issued by NWS

Home | Current Version | Previous Version | Text Only | Print | Product List | Glossary On
Versions: 1 2 3 4 5 6 7 8 9 10 11 12 13 14 15 16 17 18 19 20 21 22 23 24 25 26 27 28 29 30 31 32 33 34 35 36 37 38 39 40 41 42 43 44 45 46 47 48 49 50
000
ASUS44 KLIX 260413
RWRLA
LOUISIANA WEATHER ROUNDUP
NATIONAL WEATHER SERVICE NEW ORLEANS LA
1000 PM CST SAT FEB 25 2017

NOTE: "FAIR" INDICATES FEW OR NO CLOUDS BELOW 12,000 FEET WITH NO
      SIGNIFICANT WEATHER AND/OR OBSTRUCTIONS TO VISIBILITY.
      SKY/WX - SKY CONDITION AND SIGNIFICANT WEATHER.
      TMP - AIR TEMPERATURE.    DP   - DEWPOINT TEMPERATURE.
      RH  - RELATIVE HUMIDITY.  PRES - PRESSURE.
      HX  - HEAT INDEX.         WCI  - WIND CHILL INDEX.

*  THESE STATIONS ARE NOT NWS OR FAA STATIONS AND ARE NOT UNDER
   NWS QUALITY CONTROL.

LAZ040-048-061>063-065-066-069-260500-
SOUTHEAST LOUISIANA

CITY           SKY/WX    TMP DP  RH WIND       PRES   REMARKS
N.O. AUDUBON   NOT AVBL
N.O. INTL ARPT CLEAR     59  35  40 NE10      30.11R
N.O. LAKEFRONT CLEAR     61  40  45 NE20      30.12R
N.O. DOWNTOWN*   N/A     61  36  39 N7        30.12R
RESERVE*       FAIR      56  35  44 N8        30.13R
SLIDELL        PTCLDY    47  37  68 N6        30.12R
BATON ROUGE    PTCLDY    49  37  63 N5        30.13R
BOOTHVILLE     CLEAR     61  43  51 N9        30.09S
BELLE CHASSE   PTCLDY    56  37  49 NE8       30.11R
BOGALUSA*      FAIR      44  37  79 N3        30.16R
GALLIANO*      CLEAR     59  38  46 N6        30.09S
NEW ROADS*     FAIR      47  34  60 NE3       30.15R
GONZALES*      FAIR      53  32  43 CALM      30.12R
HAMMOND*       CLEAR     46  32  57 N5        30.13R
HOUMA*         CLEAR     51  38  60 N6        30.10S
PORT FOURCHON* NOT AVBL

$$

LAZ041-044-053-054-260500-
SOUTHWEST LOUISIANA

CITY           SKY/WX    TMP DP  RH WIND       PRES   REMARKS
LAKE CHARLES   PTCLDY    50  38  63 NE7       30.12R
LAFAYETTE      PTCLDY    53  36  52 N5        30.13R
PATTERSON      CLEAR     54  36  50 N8        30.12R
SALT POINT       N/A     55  34  45 N5        30.09S
NEW IBERIA     PTCLDY    53  34  48 NE8       30.13R
CHENAULT AIRPK CLEAR     41  25  52 NE3       30.13R

$$

LAZ027-028-260500-
CENTRAL LOUISIANA

CITY           SKY/WX    TMP DP  RH WIND       PRES   REMARKS
FORT POLK      CLEAR     48  31  51 NE3       30.12S
ALEXANDRIA INT CLEAR     46  32  58 E5        30.12S
ALEXANDRIA     CLEAR     39  37  92 CALM      30.13S

$$

LAZ001-002-260500-
NORTHWEST LOUISIANA

CITY           SKY/WX    TMP DP  RH WIND       PRES   REMARKS
SHREVEPORT     CLEAR     42  29  59 CALM      30.12R
BARKSDALE AFB  CLEAR     40  30  67 NE3       30.13R
DTN SHREVEPORT CLEAR     44  29  55 NE5       30.13R

$$

LAZ014-016-260500-
NORTHEAST LOUISIANA

CITY           SKY/WX    TMP DP  RH WIND       PRES   REMARKS
MONROE         CLEAR     43  30  60 E5        30.16R
TALLULAH       CLEAR     37  33  85 CALM      30.17R

$$




USA.gov is the U.S. government's official web portal to all federal, state and local government web resources and services.